Regional Weather Roundup
Issued by NWS Newport/Morehead, NC

Current Version | Previous Version | Text Only | Print | Product List | Glossary Off
Versions: 1 2 3 4 5 6 7 8 9 10 11 12 13 14 15 16 17 18 19 20 21 22 23 24 25 26 27 28 29 30 31 32 33 34 35 36 37 38 39 40 41 42 43 44 45 46 47 48 49 50
000 ASUS42 KMHX 160425 RWRMHX WEATHER ROUNDUP FOR EASTERN NORTH CAROLINA NATIONAL WEATHER SERVICE NEWPORT/MOREHEAD CITY NC 1100 PM EST SUN JAN 15 2017 NOTE: "FAIR" INDICATES FEW OR NO CLOUDS BELOW 12,000 FEET WITH NO SIGNIFICANT WEATHER AND/OR OBSTRUCTIONS TO VISIBILITY NCZ015>017-031-032-045>047-102-103-160500- NORTH COAST CITY SKY/WX TMP DP RH WIND PRES REMARKS EDENTON CLOUDY 43 37 79 CALM 30.41S ELIZABETH CITY CLOUDY 41 37 86 N8 30.40S KITTY HAWK NOT AVBL MANTEO PTCLDY 41 37 84 NE6 30.39F $$ NCZ045>047-081-094-103-104-160500- CENTRAL COAST CITY SKY/WX TMP DP RH WIND PRES REMARKS FRISCO PTCLDY 45 40 82 NE7 30.37S HAZE $$ NCZ095-097-098-100-101-160500- SOUTHERN COAST CITY SKY/WX TMP DP RH WIND PRES REMARKS BEAUFORT CLOUDY 45 41 86 NE8 30.37S CEDAR ISLAND NOT AVBL JACKSONVILLE CLOUDY 47 42 83 E8 30.37R PINEY ISLAND CLOUDY N/A N/A N/A N9 30.38R WILMINGTON CLOUDY 50 44 80 E5 30.34F $$ NCZ011>013-027>030-043-044-078>080-089-090>093-098-160500- COASTAL PLAIN CITY SKY/WX TMP DP RH WIND PRES REMARKS AHOSKIE N/A 42 28 57 CALM 30.41S CLINTON CLOUDY 51 46 86 E5 30.36S ELIZABETHTOWN PTCLDY 49 45 87 CALM 30.35R GOLDSBORO CLOUDY 48 44 87 E7 30.35S GREENVILLE CLOUDY 45 41 87 E5 30.39S HAVELOCK MOCLDY 44 41 89 E3 30.39R KENANSVILLE CLOUDY 48 45 87 E5 30.37S KINSTON CLOUDY 47 41 78 E3 30.38S NEW BERN CLOUDY 44 40 85 NE8 30.38S RICHLANDS MOCLDY 44 41 89 NE5 30.38R ROCKY MOUNT CLOUDY 47 38 71 NE5 30.39R WASHINGTON CLOUDY 41 38 90 NE6 30.39S WHITEVILLE CLOUDY 51 47 87 NE6 30.34R $$ AMZ130-135-150-152-154-156-158-170-250-252-270-ANZ085-086-088-633-658-670-160500- MARINE OBSERVATIONS STATION/POSITION TIME TEMP WIND PRES WAVE SWELL AIR SEA DIR/SP/G HT/PER HT/PER (UTC) (F) (DEG/KT/KT) (MB) (FT/S) (FT/S) CHESAPEAKE LIGHT NOT AVBL 64 E VA BEACH 0350 49 64 30/ 14/ 16 1028.1 4/ 6 3/ 6 DUCK 0400 44 44 20/ 11/ 12 1028.5 2 E DUCK 0400 44 N/A 3/ 6 2/11 OREGON INLET 0400 44 50 10/ 7/ 11 1028.8 13E OREGON INLT NOT AVBL HATTERAS CG 0400 45 54 30/ 10/ 16 1027.8 DIAMOND BUOY 0350 53 74 20/ 16/ 19 1027.7 4/11 3/11 CAPE LOOKOUT 0400 47 10/ 10/ 14 1027.6 BEAUFORT LAB 0400 44 50 30/ 5/ 10 1027.5 30 SE NEW RVR IN 0408 51 65 40/ 14/ 19 1027.3 30 SE NEW RVR IN 0413 65 N/A 4/10 2/11 27 SE WRIGHTSVLE 0408 58 71 70/ 16/ 21 1026.3 5 SE WRIGHTSVLE 0408 52 70/ 12/ 17 1027.1 225 S CAPE HAT 0350 69 71 60/ 8/ 10 1026.1 4/11 5/11 41 SE CHARLESTON 0350 69 71 80/ 2/ 4 1025.5 3/11 3/11 $$

USA.gov is the U.S. government's official web portal to all federal, state and local government web resources and services.